Weather History for Poplar Bluff, MO

Change the Weather History Date:

Sunday, June 15, 2014

  Actual Average Record
Temperature  
Mean Temperature 74 °F -  
Max Temperature 84 °F 88 °F 103 °F (1944)
Min Temperature 64 °F 65 °F 44 °F (1933)
Cooling Degree Days 9    
Growing Degree Days 24 (Base 50)    
Moisture  
Dew Point 64 °F    
Average Humidity 66    
Maximum Humidity 84    
Minimum Humidity 55    
Precipitation  
Precipitation 0.00 in - - ()
Sea Level Pressure  
Sea Level Pressure 29.96 in    
Wind  
Wind Speed 7 mph (South)    
Max Wind Speed 20 mph    
Max Gust Speed 26 mph    
Visibility 10 miles    
Events Rain    
Averages and records for this station are not official NWS values.
T = Trace of Precipitation, MM = Missing Value Source: NWS Daily Summary

Daily Weather History Graph

Daily Weather History Graph

Search for Another Location

Airport:

Trip Planner

Search our weather history database for the weather conditions in past years. The results will help you decide how hot, cold, wet, or windy it might be!

Date:

Astronomy

Jun. 15, 2014 Rise Set
Actual Time 5:41 AM CDT 8:21 PM CDT
Civil Twilight 5:11 AM CDT 8:52 PM CDT
Nautical Twilight 4:32 AM CDT 9:30 PM CDT
Astronomical Twilight 3:50 AM CDT 10:13 PM CDT
Moon 10:36 PM CDT (6/15) 8:31 AM CDT (6/15)
Length of Visible Light 15h 41m
Length of Day
14h 40m
Waning Gibbous, 91% of the Moon is Illuminated
Jun 15
Waning Gibbous
Jun 19
Last Quarter
Jun 27
New
Jul 5
First Quarter
Jul 12
Full

Hourly Weather History & Observations

Time (CDT) Temp. Heat Index Dew Point Humidity Pressure Visibility Wind Dir Wind Speed Gust Speed Precip Events Conditions
12:53 AM 66.9 °F - 57.0 °F 70% 29.93 in 10.0 mi SE 3.5 mph - N/A   Clear
1:53 AM 66.0 °F - 57.0 °F 73% 29.92 in 10.0 mi SE 5.8 mph - N/A   Partly Cloudy
2:53 AM 66.0 °F - 57.9 °F 75% 29.90 in 10.0 mi SE 4.6 mph - N/A   Clear
3:53 AM 64.9 °F - 57.9 °F 78% 29.89 in 10.0 mi SSE 4.6 mph - N/A   Clear
4:53 AM 66.0 °F - 57.9 °F 75% 29.92 in 10.0 mi SSE 3.5 mph - N/A   Mostly Cloudy
6:53 AM 68.0 °F - 61.0 °F 78% 29.94 in 10.0 mi SE 3.5 mph - N/A   Partly Cloudy
7:53 AM 73.0 °F - 63.0 °F 71% 29.96 in 10.0 mi South 4.6 mph - N/A   Partly Cloudy
8:53 AM 77.0 °F - 64.0 °F 64% 29.98 in 10.0 mi South 6.9 mph - N/A   Scattered Clouds
9:53 AM 80.1 °F 82.1 °F 66.0 °F 62% 29.99 in 10.0 mi South 15.0 mph - N/A   Clear
10:53 AM 80.1 °F 82.3 °F 66.9 °F 64% 30.01 in 10.0 mi SSW 11.5 mph - N/A   Mostly Cloudy
11:53 AM 82.9 °F 85.4 °F 66.9 °F 58% 30.01 in 10.0 mi SSW 16.1 mph 26.5 mph 0.00 in Rain Light Rain
12:53 PM 84.0 °F 86.5 °F 66.9 °F 56% 29.99 in 10.0 mi SW 19.6 mph 25.3 mph 0.00 in   Clear
1:53 PM 84.0 °F 86.3 °F 66.0 °F 55% 29.97 in 8.0 mi SW 12.7 mph 19.6 mph N/A   Clear
2:53 PM 84.0 °F 86.3 °F 66.0 °F 55% 29.91 in 10.0 mi South 16.1 mph 24.2 mph N/A   Clear
3:53 PM 84.0 °F 86.5 °F 66.9 °F 56% 29.92 in 10.0 mi SSW 16.1 mph 25.3 mph N/A   Clear
4:53 PM 84.0 °F 86.3 °F 66.0 °F 55% 29.91 in 10.0 mi South 11.5 mph - N/A   Clear
5:53 PM 84.0 °F 86.5 °F 66.9 °F 56% 29.94 in 10.0 mi SSW 10.4 mph - N/A   Clear
6:53 PM 84.0 °F 86.5 °F 66.9 °F 56% 29.95 in 10.0 mi SSW 8.1 mph - N/A   Partly Cloudy
7:53 PM 82.0 °F 83.8 °F 64.9 °F 56% 29.96 in 10.0 mi SW 5.8 mph - N/A   Clear
8:53 PM 75.9 °F - 68.0 °F 76% 29.97 in 10.0 mi Calm Calm - N/A   Clear
9:53 PM 75.0 °F - 66.9 °F 76% 30.00 in 10.0 mi Calm Calm - N/A   Clear
10:53 PM 73.0 °F - 66.0 °F 79% 30.02 in 10.0 mi Calm Calm - N/A   Clear
11:53 PM 72.0 °F - 66.9 °F 84% 30.03 in 10.0 mi Calm Calm - N/A   Mostly Cloudy